This demonstration page uses our WeatherBlox Daily Observations layout. Learn more.

Left ArrowRight Arrow

36.17497, -115.13722

Hourly Observations for October 10, 2021

Temp ( °F °C ) Dew Point ( °F °C ) Humidity (%) Winds ( mph kmh ) Pressure ( in mb ) Visibility ( mi km ) Precip ( " mm )
12:53 am 00:53 Clear 67 19.4 28 -2.2 23 23 NNW 12 19 30.04 1017 10 16 0.00 0.00
1:53 am 01:53 Clear 66 18.9 28 -2.2 24 24 NW 16 26 30.04 1017 10 16 0.00 0.00
2:53 am 02:53 Clear 65 18.3 29 -1.7 26 26 NW 12 19 30.04 1017 10 16 0.00 0.00
3:53 am 03:53 Clear 65 18.3 29 -1.7 26 26 NW 16 26 30.04 1017 10 16 0.00 0.00
4:53 am 04:53 Clear 65 18.3 29 -1.7 26 26 NNW 13 20 30.04 1017 10 16 0.00 0.00
5:53 am 05:53 Clear 64 17.8 30 -1.1 28 28 NNW 9 15 30.07 1018 10 16 0.00 0.00
6:53 am 06:53 Sunny 62 16.7 30 -1.1 30 30 N 13 20 30.08 1019 10 16 0.00 0.00
7:53 am 07:53 Sunny 63 17.2 30 -1.1 29 29 NW 14 22 30.09 1019 10 16 0.00 0.00
8:53 am 08:53 Sunny 67 19.4 31 -0.6 26 26 NNW 20 31 30.09 1019 10 16 0.00 0.00
9:53 am 09:53 Sunny 71 21.7 30 -1.1 22 22 NNW 16 26 30.09 1019 10 16 0.00 0.00
10:53 am 10:53 Sunny 71 21.7 30 -1.1 22 22 Calm 30.09 1019 10 16 0.00 0.00
11:53 am 11:53 Sunny 74 23.3 30 -1.1 20 20 ENE 5 7 30.06 1018 10 16 0.00 0.00
12:53 pm 12:53 Sunny 74 23.3 30 -1.1 20 20 Calm 30.03 1017 10 16 0.00 0.00
1:53 pm 13:53 Sunny 75 23.9 29 -1.7 18 18 ESE 7 11 29.99 1016 10 16 0.00 0.00
2:53 pm 14:53 Sunny 78 25.6 28 -2.2 16 16 VRB 6 9 29.96 1015 10 16 0.00 0.00
3:53 pm 15:53 Sunny 79 26.1 24 -4.4 13 13 N 6 9 29.93 1014 10 16 0.00 0.00
4:53 pm 16:53 Sunny 77 25 27 -2.8 16 16 Calm 29.91 1013 10 16 0.00 0.00
5:53 pm 17:53 Sunny 76 24.4 28 -2.2 17 17 ESE 6 9 29.91 1013 10 16 0.00 0.00
6:53 pm 18:53 Clear 74 23.3 28 -2.2 18 18 ESE 6 9 29.90 1013 10 16 0.00 0.00
7:53 pm 19:53 Clear 72 22.2 29 -1.7 20 20 ESE 3 6 29.89 1012 10 16 0.00 0.00
8:53 pm 20:53 Clear 70 21.1 29 -1.7 22 22 Calm 29.88 1012 10 16 0.00 0.00
9:53 pm 21:53 Clear 68 20 34 1.1 28 28 W 3 6 29.87 1012 10 16 0.00 0.00
10:53 pm 22:53 Clear 64 17.8 34 1.1 33 33 NW 5 7 29.86 1011 10 16 0.00 0.00
11:53 pm 23:53 Clear 62 16.7 32 0 32 32 NW 5 7 29.84 1011 10 16 0.00 0.00

Powered by AerisWeather